Location: Rounton
(54.4000°N, 1.3500°W)
Time: 07:36:41
(UTC+00:00)

Vanguard 1 - Pass Details

Date: 04 December 2021
Orbit: 652 x 3830 km, 34.2° (Epoch: 16 January)

Event Time Altitude Azimuth Distance (km) Brightness Sun altitude
Rises 00:28:30 0° 229° (SW) 7,498 - -57.2°
Reaches altitude 10° 00:33:53 10° 223° (SW) 6,714 - -57.0°
Maximum altitude 00:53:37 38° 165° (SSE) 4,854 - -56.0°
Exits shadow 01:03:26 27° 125° (SE) 5,116 13.5 -55.4°
Drops below altitude 10° 01:10:49 10° 107° (ESE) 5,918 14.1 -54.9°
Sets 01:15:08 0° 100° (E) 6,568 14.5 -54.5°
